Weather History for KMHT - December, 2013

Change the Weather History Date:

Saturday, December 28, 2013

  Actual Average Record
Temperature  
Mean Temperature 34 °F -  
Max Temperature 45 °F 33 °F 58 °F (1949)
Min Temperature 24 °F 12 °F -25 °F (1951)
Degree Days  
Heating Degree Days 30    
Moisture  
Dew Point 23 °F    
Average Humidity 67    
Maximum Humidity 82    
Minimum Humidity 47    
Precipitation  
Precipitation 0.00 in - - ()
Snow  
Snow 0.00 in - - ()
Snow Depth 4.00 in    
Sea Level Pressure  
Sea Level Pressure 30.10 in    
Wind  
Wind Speed 6 mph (SSW)    
Max Wind Speed 9 mph    
Max Gust Speed -    
Visibility 10 miles    
Events      
Averages and records for this station are not official NWS values.
T = Trace of Precipitation, MM = Missing Value Source: NWS Daily Summary

Daily Weather History Graph

Daily Weather History Graph

Search for Another Location

Airport or City:

Trip Planner

Search our weather history database for the weather conditions in past years. The results will help you decide how hot, cold, wet, or windy it might be!

Date:

Astronomy

Dec. 28, 2013 Rise Set
Actual Time 7:16 AM EST 4:18 PM EST
Civil Twilight 6:43 AM EST 4:51 PM EST
Nautical Twilight 6:08 AM EST 5:26 PM EST
Astronomical Twilight 5:33 AM EST 6:01 PM EST
Moon 2:46 AM EST (12/28) 1:10 PM EST (12/28)
Length of Visible Light 10h 07m
Length of Day
9h 02m
Waning Crescent, 19% of the Moon is Illuminated
Dec 28
Waning Crescent
Jan 1
New
Jan 7
First Quarter
Jan 15
Full
Jan 24
Last Quarter

Hourly Weather History & Observations

Time (EST) Temp. Windchill Dew Point Humidity Pressure Visibility Wind Dir Wind Speed Gust Speed Precip Events Conditions
12:53 AM 24.1 °F 17.0 °F 18.0 °F 77% 30.22 in 10.0 mi SSW 5.8 mph - N/A   Partly Cloudy
1:53 AM 25.0 °F 19.3 °F 18.0 °F 75% 30.21 in 10.0 mi SSW 4.6 mph - N/A   Clear
2:53 AM 24.1 °F 18.2 °F 17.1 °F 75% 30.20 in 10.0 mi South 4.6 mph - N/A   Clear
3:53 AM 26.1 °F 17.6 °F 18.0 °F 71% 30.19 in 10.0 mi South 8.1 mph - N/A   Clear
4:53 AM 25.0 °F 19.3 °F 18.0 °F 75% 30.18 in 10.0 mi South 4.6 mph - N/A   Mostly Cloudy
5:53 AM 26.1 °F 17.6 °F 19.0 °F 75% 30.15 in 10.0 mi South 8.1 mph - N/A   Mostly Cloudy
6:53 AM 26.1 °F 17.6 °F 19.9 °F 78% 30.13 in 10.0 mi South 8.1 mph - N/A   Mostly Cloudy
7:53 AM 28.0 °F 22.8 °F 21.0 °F 75% 30.14 in 10.0 mi South 4.6 mph - N/A   Mostly Cloudy
8:53 AM 30.0 °F 24.1 °F 21.9 °F 72% 30.12 in 10.0 mi South 5.8 mph - N/A   Mostly Cloudy
9:53 AM 30.0 °F 25.2 °F 23.0 °F 75% 30.11 in 10.0 mi South 4.6 mph - N/A   Mostly Cloudy
10:53 AM 34.0 °F 28.0 °F 23.0 °F 64% 30.08 in 10.0 mi SSW 6.9 mph - N/A   Mostly Cloudy
11:53 AM 37.9 °F 32.7 °F 24.1 °F 57% 30.06 in 10.0 mi South 6.9 mph - N/A   Mostly Cloudy
12:53 PM 41.0 °F 37.1 °F 24.1 °F 51% 30.04 in 10.0 mi SSW 5.8 mph - N/A   Mostly Cloudy
1:53 PM 44.1 °F 39.0 °F 25.0 °F 47% 30.00 in 10.0 mi WSW 9.2 mph - N/A   Mostly Cloudy
2:53 PM 45.0 °F 40.6 °F 26.1 °F 48% 30.01 in 10.0 mi WSW 8.1 mph - N/A   Mostly Cloudy
3:53 PM 44.1 °F 39.0 °F 27.0 °F 51% 30.03 in 10.0 mi West 9.2 mph - N/A   Mostly Cloudy
4:53 PM 43.0 °F 38.2 °F 27.0 °F 53% 30.06 in 10.0 mi WSW 8.1 mph - N/A   Mostly Cloudy
5:53 PM 43.0 °F 41.3 °F 28.0 °F 56% 30.07 in 10.0 mi SW 3.5 mph - N/A   Overcast
6:53 PM 37.9 °F 35.5 °F 27.0 °F 65% 30.06 in 10.0 mi SSW 3.5 mph - N/A   Overcast
7:53 PM 37.9 °F 32.7 °F 27.0 °F 65% 30.11 in 10.0 mi SSW 6.9 mph - N/A   Partly Cloudy
8:53 PM 36.0 °F 33.3 °F 27.0 °F 70% 30.10 in 10.0 mi South 3.5 mph - N/A   Clear
9:53 PM 33.1 °F - 26.1 °F 75% 30.07 in 10.0 mi Calm Calm - N/A   Clear
10:53 PM 30.9 °F 27.5 °F 26.1 °F 82% 30.06 in 10.0 mi South 3.5 mph - N/A   Clear
11:53 PM 30.9 °F - 25.0 °F 79% 30.04 in 10.0 mi Calm Calm - N/A   Clear